User: anonymous
Location: NJAA Observatory
(40.6819°N, 74.8979°W)
Time: 03:53:05
(UTC-04:00)
Language:

Cosmos 1939 Rocket - Orbit

View from above orbital plane
View from above orbital plane
View from above satellite
View from above satellite

Ground track
Ground track

The orbit data is extracted from the following two-line orbital elements,

1 19046U 88032B   14233.26451127  .00000194  00000-0  20451-4 0  9587
2 19046 097.6418 286.6741 0035530 241.3935 118.3712 14.99633232417955
Epoch (UTC): 21 August 2014 06:20:53
Eccentricity: 0.0035530
inclination: 97.6418°
perigee height: 543 km
apogee height: 593 km
right ascension of ascending node: 286.6741°
argument of perigee: 241.3935°
revolutions per day: 14.99633232
mean anomaly at epoch: 118.3712°
orbit number at epoch: 41795

The dashed part of the orbit path shows where the satellite is in the earth's shadow,  

DLR